Flag for U.S.A. Weather past 2 weeks in Lexington-Fayette, Kentucky, U.S.A.

Now
75 °F

Sunny.


Feels Like: 77 °F
Forecast: 54 / 78 °F
Wind: 8 mph from Northeast

Location: Blue Grass Airport

Current Time: Apr 18, 2015 at 2:02:49 PM

Latest Report: Apr 18, 2015 at 12:54 PM


Visibility: 10 mi

Pressure: 30.01 "Hg

Humidity: 40%

Dew point: 49 °F

Location of Lexington-FayetteLocation

Historic Weather in Lexington-Fayette — Graph

°F

Lexington-Fayette temperature yesterday

Maximum temperature yesterday: 72 °F (at 3:54 PM)
Minimum temperature yesterday: 58 °F (at 4:54 AM)
Average temperature yesterday: 64 °F

Past Weeks' High & Low Weather Summary

 TemperatureHumidityPressure
High82 °F (Apr 9, 3:54 PM)100% (Apr 8, 1:03 AM)30.37 "Hg (Apr 8, 1:03 AM)
Low35 °F (Apr 4, 7:54 AM)21% (Apr 5, 4:54 PM)29.72 "Hg (Apr 3, 5:54 PM)
Average59 °F70%30.09 "Hg
* Reported Apr 3 12:04 PM — Apr 18 12:54 PM, Lexington-Fayette, Weather by CustomWeather, © 2015

Note: Actual official high and low records may vary slightly from our data, if they occured in-between our weather recording intervals... More about our weather records

Advertising

Lexington-Fayette weather history for previous 24 hours

 ConditionsComfort  
Time TempWeatherWind HumidityBarometerVisibility
12:54 PM
Sat, Apr 18
75 °FSunny.8 mph40%30.01 "Hg10 mi
11:54 AM72 °FSunny.7 mph44%30.03 "Hg10 mi
10:54 AM70 °FSunny.7 mph44%30.03 "Hg10 mi
9:54 AM68 °FSunny.6 mph53%30.02 "Hg10 mi
8:54 AM62 °FSunny.No wind80%30.04 "Hg10 mi
7:54 AM55 °FClear.No wind93%30.03 "Hg7 mi
6:54 AM54 °FClear.3 mph86%30.02 "Hg9 mi
5:54 AM54 °FFog.6 mph93%30.02 "Hg6 mi
4:54 AM55 °FFog.No wind93%30.02 "Hg5 mi
3:54 AM56 °FClear.No wind93%30.03 "Hg10 mi
2:54 AM54 °FClear.3 mph100%30.04 "Hg10 mi
1:54 AM57 °FFog.No wind96%30.03 "Hg6 mi
12:54 AM60 °FClear.3 mph86%30.01 "Hg10 mi
11:54 PM
Fri, Apr 17
59 °FFog.No wind96%30.02 "Hg6 mi
10:54 PM63 °FClear.No wind81%30.03 "Hg10 mi
9:54 PM66 °FPassing clouds.No wind73%30.03 "Hg10 mi
8:54 PM66 °FSunny.No wind78%30.01 "Hg10 mi
7:54 PM69 °FSunny.No wind68%30.01 "Hg10 mi
6:54 PM70 °FSunny.No wind68%30.00 "Hg10 mi
5:54 PM71 °FSunny.3 mph68%30.01 "Hg10 mi
4:54 PM72 °FSunny.3 mph61%30.02 "Hg10 mi
3:54 PM72 °FSunny.5 mph61%30.04 "Hg10 mi
2:54 PM70 °FSunny.5 mph68%30.06 "Hg10 mi
Weather by CustomWeather, © 2015

See weather overviewHow to use our weather pages